Weather History for Jaffrey, NH

Change the Weather History Date:

Saturday, February 15, 2014

  Actual Average Record
Temperature  
Mean Temperature 22 °F -  
Max Temperature 28 °F 31 °F 50 °F (2006)
Min Temperature 15 °F 12 °F -15 °F (2003)
Degree Days  
Heating Degree Days 44    
Moisture  
Dew Point 22 °F    
Average Humidity 85    
Maximum Humidity 89    
Minimum Humidity 75    
Precipitation  
Precipitation 0.09 in - - ()
Sea Level Pressure  
Sea Level Pressure 29.70 in    
Wind  
Wind Speed 3 mph (North)    
Max Wind Speed 13 mph    
Max Gust Speed 21 mph    
Visibility 3 miles    
Events Fog , Snow    
Averages and records for this station are not official NWS values.
T = Trace of Precipitation, MM = Missing Value Source: NWS Daily Summary

Daily Weather History Graph

Daily Weather History Graph

Search for Another Location

Airport:

Trip Planner

Search our weather history database for the weather conditions in past years. The results will help you decide how hot, cold, wet, or windy it might be!

Date:

Astronomy

Feb. 15, 2014 Rise Set
Actual Time 6:45 AM EST 5:19 PM EST
Civil Twilight 6:16 AM EST 5:48 PM EST
Nautical Twilight 5:43 AM EST 6:21 PM EST
Astronomical Twilight 5:10 AM EST 6:54 PM EST
Moon 6:19 PM EST (2/15) 6:40 AM EST (2/15)
Length of Visible Light 11h 32m
Length of Day
10h 34m
Full, 100% of the Moon is Illuminated
Feb 15
Full
Feb 22
Last Quarter
Mar 1
New
Mar 8
First Quarter
Mar 16
Full

Hourly Weather History & Observations

Time (EST) Temp. Windchill Dew Point Humidity Pressure Visibility Wind Dir Wind Speed Gust Speed Precip Events Conditions
12:52 AM 24.1 °F 18.2 °F 17.1 °F 75% 29.76 in 10.0 mi Variable 4.6 mph - N/A   Clear
1:52 AM 19.9 °F - 16.0 °F 85% 29.77 in 8.0 mi Calm Calm - N/A   Clear
2:52 AM 21.9 °F 14.5 °F 16.0 °F 78% 29.80 in 10.0 mi South 5.8 mph - N/A   Clear
3:52 AM 21.9 °F - 16.0 °F 78% 29.78 in 9.0 mi Calm Calm - N/A   Clear
4:52 AM 19.0 °F - 16.0 °F 88% 29.80 in 7.0 mi Calm Calm - N/A   Mostly Cloudy
5:52 AM 19.0 °F 12.3 °F 15.1 °F 85% 29.82 in 9.0 mi SSE 4.6 mph - N/A   Partly Cloudy
6:52 AM 15.1 °F - 12.0 °F 88% 29.82 in 5.0 mi Calm Calm - N/A   Clear
7:52 AM 18.0 °F - 15.1 °F 88% 29.83 in 6.0 mi Calm Calm - N/A   Overcast
8:52 AM 21.9 °F - 17.1 °F 82% 29.85 in 6.0 mi Calm Calm - N/A   Haze
9:27 AM 23.0 °F - 18.0 °F 81% 29.79 in 3.0 mi Calm Calm - 0.00 in Snow Light Snow
9:31 AM 23.0 °F - 18.0 °F 81% 29.78 in 1.8 mi Calm Calm - 0.00 in Snow Light Snow
9:52 AM 25.0 °F - 19.9 °F 81% 29.83 in 1.2 mi Calm Calm - 0.00 in Snow Light Snow
9:59 AM 25.0 °F - 19.9 °F 81% 29.77 in 1.0 mi Calm Calm - 0.00 in Snow Light Snow
10:22 AM 25.0 °F - 21.9 °F 88% 29.79 in 1.2 mi Calm Calm - 0.01 in Snow Light Snow
10:26 AM 25.0 °F 20.7 °F 21.9 °F 88% 29.79 in 1.0 mi South 3.5 mph - 0.01 in Snow Light Snow
10:46 AM 26.6 °F - 21.2 °F 80% 29.79 in 1.5 mi Calm Calm - 0.01 in Snow Light Snow
10:52 AM 26.1 °F 21.9 °F 23.0 °F 88% 29.86 in 1.2 mi South 3.5 mph - 0.01 in Snow Light Snow
10:57 AM 26.1 °F - 23.0 °F 88% 29.79 in 0.8 mi Calm Calm - 0.00 in Snow Light Snow
11:16 AM 27.0 °F - 24.1 °F 89% 29.78 in 0.5 mi Calm Calm - 0.01 in Fog , Snow Snow
11:48 AM 28.4 °F - 24.8 °F 86% 29.76 in 1.0 mi Calm Calm - 0.02 in Snow Light Snow
11:49 AM 28.0 °F - 24.1 °F 85% 29.81 in 1.0 mi Calm Calm - 0.02 in Snow Light Snow
11:57 AM 28.0 °F - 24.1 °F 85% 29.76 in 1.5 mi Calm Calm - 0.00 in Snow Light Snow
12:06 PM 28.0 °F - 23.0 °F 81% 29.75 in 2.0 mi Calm Calm - 0.00 in Snow Light Snow
12:32 PM 28.0 °F - 24.1 °F 85% 29.74 in 1.5 mi Calm Calm - 0.00 in Snow Light Snow
12:43 PM 28.0 °F 24.2 °F 24.1 °F 85% 29.73 in 1.2 mi Variable 3.5 mph - 0.00 in Snow Light Snow
12:52 PM 28.0 °F 24.2 °F 24.1 °F 85% 29.78 in 1.0 mi Variable 3.5 mph - 0.00 in Snow Light Snow
12:58 PM 28.0 °F - 24.1 °F 85% 29.72 in 1.5 mi Calm Calm - 0.00 in Snow Light Snow
1:09 PM 28.0 °F - 24.1 °F 85% 29.71 in 2.0 mi Calm Calm - 0.00 in Snow Light Snow
1:19 PM 28.9 °F - 24.1 °F 82% 29.71 in 2.5 mi Calm Calm - 0.00 in Snow Light Snow
1:34 PM 28.0 °F 22.8 °F 24.1 °F 85% 29.70 in 1.5 mi Variable 4.6 mph - 0.00 in Snow Light Snow
1:42 PM 28.0 °F 22.8 °F 24.1 °F 85% 29.70 in 1.2 mi NNE 4.6 mph - 0.00 in Snow Light Snow
1:52 PM 28.0 °F 24.2 °F 24.1 °F 85% 29.76 in 1.2 mi North 3.5 mph - 0.00 in Snow Light Snow
1:56 PM 28.0 °F - 24.1 °F 85% 29.70 in 1.0 mi Calm Calm - 0.00 in Snow Light Snow
2:27 PM 28.0 °F 22.8 °F 24.1 °F 85% 29.67 in 1.2 mi Variable 4.6 mph - 0.01 in Snow Light Snow
2:36 PM 28.0 °F 22.8 °F 24.1 °F 85% 29.67 in 1.0 mi Variable 4.6 mph - 0.01 in Snow Light Snow
2:52 PM 28.0 °F 22.8 °F 24.1 °F 85% 29.72 in 1.2 mi Variable 4.6 mph - 0.01 in Snow Light Snow
3:02 PM 28.0 °F - 24.1 °F 85% 29.66 in 1.5 mi Calm Calm - 0.00 in Snow Light Snow
3:14 PM 28.0 °F 21.7 °F 24.1 °F 85% 29.66 in 2.0 mi Variable 5.8 mph - 0.00 in Snow Light Snow
3:29 PM 28.0 °F - 23.0 °F 81% 29.67 in 3.0 mi Calm Calm - 0.00 in Snow Light Snow
3:36 PM 28.0 °F 24.2 °F 23.0 °F 81% 29.66 in 3.0 mi Variable 3.5 mph - 0.00 in Snow Light Snow
3:52 PM 27.0 °F 21.6 °F 23.0 °F 85% 29.73 in 4.0 mi Variable 4.6 mph - 0.00 in Snow Light Snow
4:52 PM 27.0 °F 23.0 °F 23.0 °F 85% 29.72 in 2.0 mi Variable 3.5 mph - 0.00 in Snow Light Snow
4:56 PM 27.0 °F 23.0 °F 23.0 °F 85% 29.65 in 1.2 mi North 3.5 mph - 0.00 in Snow Light Snow
5:06 PM 27.0 °F 20.5 °F 23.0 °F 85% 29.65 in 1.0 mi Variable 5.8 mph - 0.00 in Snow Light Snow
5:26 PM 26.1 °F 21.9 °F 23.0 °F 88% 29.64 in 1.5 mi Variable 3.5 mph - 0.01 in Snow Light Snow
5:37 PM 26.1 °F 20.5 °F 23.0 °F 88% 29.64 in 1.2 mi Variable 4.6 mph - 0.01 in Snow Light Snow
5:45 PM 26.1 °F - 23.0 °F 88% 29.64 in 1.0 mi Calm Calm - 0.02 in Snow Light Snow
5:52 PM 26.1 °F - 23.0 °F 88% 29.70 in 1.0 mi Calm Calm - 0.02 in Snow Light Snow
6:15 PM 26.1 °F 21.9 °F 23.0 °F 88% 29.63 in 1.2 mi Variable 3.5 mph - 0.01 in Snow Light Snow
6:26 PM 26.1 °F 19.4 °F 23.0 °F 88% 29.63 in 1.5 mi North 5.8 mph - 0.01 in Snow Light Snow
6:52 PM 26.1 °F 19.4 °F 23.0 °F 88% 29.67 in 1.8 mi Variable 5.8 mph - 0.02 in Snow Light Snow
7:05 PM 26.1 °F 18.4 °F 23.0 °F 88% 29.60 in 1.2 mi North 6.9 mph - 0.00 in Snow Light Snow
7:23 PM 26.1 °F 20.5 °F 23.0 °F 88% 29.59 in 1.8 mi North 4.6 mph - 0.00 in Snow Light Snow
7:33 PM 26.1 °F 19.4 °F 23.0 °F 88% 29.58 in 2.5 mi Variable 5.8 mph - 0.00 in Snow Light Snow
7:43 PM 26.1 °F 20.5 °F 23.0 °F 88% 29.58 in 3.0 mi Variable 4.6 mph - 0.00 in Snow Light Snow
7:52 PM 26.1 °F 20.5 °F 23.0 °F 88% 29.64 in 3.0 mi North 4.6 mph - 0.00 in Snow Light Snow
8:03 PM 26.1 °F - 23.0 °F 88% 29.57 in 2.5 mi Calm Calm - 0.00 in Snow Light Snow
8:32 PM 26.1 °F 18.4 °F 23.0 °F 88% 29.55 in 1.8 mi Variable 6.9 mph - 0.00 in Snow Light Snow
8:52 PM 27.0 °F 21.6 °F 23.0 °F 85% 29.61 in 2.0 mi Variable 4.6 mph - 0.01 in Snow Light Snow
9:06 PM 27.0 °F 18.7 °F 23.0 °F 85% 29.54 in 4.0 mi North 8.1 mph - 0.00 in Snow Light Snow
9:16 PM 27.0 °F 19.5 °F 23.0 °F 85% 29.53 in 5.0 mi Variable 6.9 mph - 0.00 in Snow Light Snow
9:52 PM 27.0 °F 19.5 °F 21.9 °F 81% 29.57 in 10.0 mi Variable 6.9 mph - 0.00 in   Overcast
10:52 PM 27.0 °F 18.7 °F 21.0 °F 78% 29.56 in 10.0 mi NNW 8.1 mph - N/A   Overcast
11:52 PM 27.0 °F 16.1 °F 21.0 °F 78% 29.57 in 5.0 mi NNW 12.7 mph 20.7 mph 0.00 in Snow Light Snow